TimeEDT,TemperatureF,Dew PointF,Humidity,Sea Level PressureIn,VisibilityMPH,Wind Direction,Wind SpeedMPH,Gust SpeedMPH,PrecipitationIn,Events,Conditions,WindDirDegrees,DateUTC
12:32 AM,64.4,62.6,94,30.02,10.0,NNE,8.1,-,N/A,,Mostly Cloudy,20,2013-08-29 04:32:00
12:53 AM,66.0,64.0,93,30.01,10.0,NE,3.5,-,N/A,,Overcast,50,2013-08-29 04:53:00
1:53 AM,66.0,63.0,90,30.01,10.0,ENE,4.6,-,N/A,,Scattered Clouds,60,2013-08-29 05:53:00
2:05 AM,66.2,62.6,88,30.02,10.0,ENE,4.6,-,N/A,,Mostly Cloudy,60,2013-08-29 06:05:00
2:20 AM,66.2,62.6,88,30.03,10.0,NNE,4.6,-,N/A,,Mostly Cloudy,30,2013-08-29 06:20:00
2:43 AM,66.2,62.6,88,30.03,10.0,ENE,9.2,-,N/A,,Overcast,60,2013-08-29 06:43:00
2:53 AM,66.0,63.0,90,30.02,10.0,ENE,9.2,-,N/A,,Overcast,60,2013-08-29 06:53:00
3:44 AM,62.6,60.8,94,30.05,10.0,NE,13.8,-,N/A,,Overcast,50,2013-08-29 07:44:00
3:53 AM,63.0,59.0,87,30.05,10.0,NE,11.5,-,N/A,,Overcast,50,2013-08-29 07:53:00
4:24 AM,62.6,57.2,82,30.06,10.0,NE,10.4,-,N/A,,Mostly Cloudy,50,2013-08-29 08:24:00
4:34 AM,62.6,59.0,88,30.06,10.0,NE,8.1,-,N/A,,Mostly Cloudy,40,2013-08-29 08:34:00
4:53 AM,62.1,57.9,86,30.06,10.0,NE,8.1,-,N/A,,Overcast,40,2013-08-29 08:53:00
5:48 AM,62.6,59.0,88,30.09,10.0,NNE,6.9,-,N/A,,Overcast,20,2013-08-29 09:48:00
5:53 AM,62.1,59.0,90,30.09,10.0,NNE,9.2,-,N/A,,Overcast,20,2013-08-29 09:53:00
6:53 AM,60.1,57.9,93,30.12,5.0,NNE,8.1,-,0.01,Rain,Light Rain,30,2013-08-29 10:53:00
7:16 AM,60.8,57.2,88,30.12,4.0,NE,11.5,-,0.01,Rain,Light Rain,40,2013-08-29 11:16:00
7:53 AM,60.1,57.0,90,30.12,4.0,NE,9.2,-,0.03,Rain,Light Rain,40,2013-08-29 11:53:00
8:53 AM,60.1,57.0,90,30.13,10.0,NNE,10.4,-,0.00,Rain,Light Rain,30,2013-08-29 12:53:00
9:53 AM,60.1,55.9,86,30.14,10.0,NNE,11.5,-,0.00,,Overcast,30,2013-08-29 13:53:00
10:53 AM,60.1,55.9,86,30.14,10.0,NNE,12.7,-,N/A,,Overcast,20,2013-08-29 14:53:00
11:30 AM,60.8,55.4,82,30.15,3.0,NNE,11.5,20.7,0.00,,Light Drizzle,30,2013-08-29 15:30:00
11:41 AM,60.8,55.4,82,30.14,10.0,NE,12.7,-,0.00,,Overcast,40,2013-08-29 15:41:00
11:53 AM,61.0,55.0,81,30.14,10.0,NNE,11.5,21.9,0.00,,Overcast,30,2013-08-29 15:53:00
12:53 PM,64.0,55.0,73,30.13,10.0,ENE,12.7,20.7,N/A,,Mostly Cloudy,60,2013-08-29 16:53:00
1:53 PM,63.0,55.0,75,30.11,10.0,NNE,13.8,-,N/A,,Mostly Cloudy,20,2013-08-29 17:53:00
2:53 PM,64.9,54.0,68,30.09,10.0,North,13.8,17.3,N/A,,Mostly Cloudy,10,2013-08-29 18:53:00
3:53 PM,64.0,54.0,70,30.09,10.0,North,11.5,-,N/A,,Overcast,360,2013-08-29 19:53:00
4:53 PM,66.0,54.0,65,30.08,10.0,NE,9.2,-,N/A,,Mostly Cloudy,50,2013-08-29 20:53:00
5:53 PM,64.9,53.1,65,30.07,10.0,NE,6.9,-,N/A,,Scattered Clouds,40,2013-08-29 21:53:00
6:53 PM,64.0,53.1,67,30.06,10.0,ENE,6.9,-,N/A,,Partly Cloudy,70,2013-08-29 22:53:00
7:53 PM,61.0,53.1,75,30.06,10.0,NE,4.6,-,N/A,,Partly Cloudy,40,2013-08-29 23:53:00
8:53 PM,59.0,53.1,81,30.06,10.0,Calm,Calm,-,N/A,,Clear,0,2013-08-30 00:53:00
9:53 PM,55.9,52.0,87,30.06,10.0,Calm,Calm,-,N/A,,Clear,0,2013-08-30 01:53:00
10:53 PM,55.0,51.1,86,30.05,10.0,NNW,4.6,-,N/A,,Clear,330,2013-08-30 02:53:00
11:53 PM,54.0,51.1,90,30.02,10.0,North,3.5,-,N/A,,Clear,360,2013-08-30 03:53:00